Location: Carrer del Canonge
(41.4901°N, 2.2931°E)
Time: 04:30:31
(UTC+00:00)

GP-B - Pass Details

Date: 18 September 2020
Orbit: 631 x 635 km, 89.8° (Epoch: 25 October)

Event Time Altitude Azimuth Distance (km) Brightness Sun altitude
Rises 18:19:32 0° 1° (N) 2,941 6.6 -5.5°
Reaches altitude 10° 18:21:46 10° 1° (N) 2,027 5.8 -5.9°
Maximum altitude 18:26:14 85° 273° (W) 642 3.2 -6.8°
Drops below altitude 10° 18:30:39 10° 185° (S) 2,008 5.7 -7.6°
Sets 18:32:51 0° 185° (S) 2,910 6.5 -8.0°
